Regional Weather Roundup
Issued by NWS

Home | Current Version | Previous Version | Text Only | Print | Product List | Glossary Off
Versions: 1 2 3 4 5 6 7 8 9 10 11 12 13 14 15 16 17 18 19 20 21 22 23 24 25 26 27 28 29 30 31 32 33 34 35 36 37 38 39 40 41 42 43 44 45 46 47 48 49 50

000
ASUS43 KDTX 230801
RWRMI
MICHIGAN HOURLY REGIONAL WEATHER ROUNDUP
NATIONAL WEATHER SERVICE DETROIT/PONTIAC MI
400 AM EDT SAT MAY 23 2015

NOTE: "FAIR" INDICATES FEW OR NO CLOUDS BELOW 12,000 FEET WITH NO
SIGNIFICANT WEATHER AND/OR OBSTRUCTION TO VISIBILITY.

MIZ047>049-052>055-059>063-066>070-074>076-081>083-230900-
SOUTHEAST LOWER MICHIGAN

CITY           SKY/WX    TMP DP  RH WIND       PRES   REMARKS
ADRIAN         MOCLDY    44  32  62 NE3       30.34S
ALMA           CLEAR     35  34  94 CALM      30.33R
ANN ARBOR      MOCLDY    35  31  85 CALM      30.33S
BAD AXE        CLEAR     31  23  72 SE3       30.33F
CARO           CLEAR     31  28  90 CALM      30.33R
DETROIT CITY   CLEAR     42  29  59 CALM      30.34S
DETROIT        CLOUDY    45  31  58 CALM      30.34S
FLINT          CLEAR     39  27  62 S3        30.34R
GROSSE ILE     PTCLDY    46  30  53 CALM      30.33S
HILLSDALE      MOCLDY    44  41  89 CALM      30.33R
HOWELL         PTCLDY    39  27  60 SE3       30.33R

CITY           SKY/WX    TMP DP  RH WIND       PRES   REMARKS
JACKSON        MOCLDY    43  33  68 SE5       30.33R
LAMBERTVILLE   MOCLDY    45  36  70 CALM      30.34R
LANSING        PTCLDY    45  34  65 E3        30.33R
LAPEER         FAIR      31  30  95 CALM      30.33S
MASON          MOCLDY    41  32  72 CALM      30.32S
MONROE         MOCLDY    45  34  65 CALM      30.32S
MT. CLEMENS    CLEAR     37  30  75 NW2       30.32R
PONTIAC        CLEAR     36  27  69 CALM      30.33R
PORT HOPE        N/A     39  22  50 S5        30.31F
PORT HURON     CLEAR     30  28  93 CALM      30.35R
TRI CITIES     CLEAR     42  28  57 CALM      30.34R
MIDLAND        FAIR      34  33  96 CALM      30.32S
TROY           CLEAR     40  29  65 CALM      30.35S
SAGINAW HB     CLEAR     37  27  65 CALM      30.33R
$$
MIZ043>046-050>051-056>058-064>065-071>073-077>080-230900-
SOUTHWEST LOWER MICHIGAN

CITY           SKY/WX    TMP DP  RH WIND       PRES   REMARKS
BATTLE CREEK   MOCLDY    50  33  52 SE6       30.32R
BENTON HARBOR  CLEAR     42  36  79 SE6       30.30S
BIG RAPIDS     CLEAR     36  32  85 CALM      30.30S
COLDWATER      PTCLDY    45  35  67 SE5       30.32R
FREMONT        FAIR      42  31  65 E5        30.29S
HOLLAND        MOCLDY    45  35  68 SE5       30.31R
GRAND RAPIDS   PTCLDY    42  34  73 SE5       30.31R
IONIA          FAIR      42  34  72 S5        30.31R
KALAMAZOO      PTCLDY    45  33  63 CALM      30.32R
LUDINGTON      CLEAR     36  32  88 CALM      30.31R
MARSHALL       MOCLDY    46  36  68 E3        30.31S
MOUNT PLEASANT CLEAR     36  35  95 CALM      30.31S
MUSKEGON       PTCLDY    43  33  68 CALM      30.30R
SOUTH HAVEN    PTCLDY    47  34  61 CALM      30.31R
$$
MIZ016>042-230900-
NORTHERN LOWER MICHIGAN

CITY           SKY/WX    TMP DP  RH WIND       PRES   REMARKS
ALPENA         CLEAR     33  28  81 CALM      30.31S
BEAVER ISLAND  CLEAR     37  27  68 CALM      30.26F
BELLAIRE       CLEAR     31  29  94 CALM      30.29F
CADILLAC       CLEAR     33  28  83 CALM      30.29R
CHARLEVOIX     CLEAR     40  31  70 SE5       30.30F
FRANKFORT      CLEAR     37  29  75 CALM      30.29R
GAYLORD        CLEAR     35  28  75 CALM      30.28F
HARBOR SPRINGS CLEAR     33  28  80 CALM      30.28F
HOUGHTON LAKE  CLEAR     31  29  92 CALM      30.31S
MANISTEE       CLEAR     34  28  80 E5        30.30S WCI  30
OSCODA         CLEAR     35  31  85 CALM      30.31F
PELLSTON       CLEAR     27  25  92 CALM      30.28F
ROGERS CITY    CLEAR     37  28  67 S6        30.30S WCI  33
TRAVERSE CITY  CLEAR     36  29  75 CALM      30.28S
$$
MIZ007>008-015-230900-
EASTERN UPPER MICHIGAN

CITY           SKY/WX    TMP DP  RH WIND       PRES   REMARKS
KINROSS        CLEAR     37  27  65 S5        30.26S WCI  34
MACKINAC ISLAN CLEAR     40  32  72 S8        30.26F WCI  35
NEWBERRY       CLEAR     39  27  62 SW10      30.23F WCI  32
S. S. MARIE    CLEAR     31  23  72 CALM      30.26S
$$
MIZ004>006-011>014-085-230900-
CENTRAL UPPER MICHIGAN

CITY           SKY/WX    TMP DP  RH WIND       PRES   REMARKS
MANISTIQUE     CLEAR     41  35  81 SW6       30.25S
ESCANABA       CLEAR     36  28  75 CALM      30.25S
MENOMINEE      CLEAR     45  30  57 SW5       30.26S
SAWYER-GWINN   CLEAR     39  25  57 SW6       30.22F WCI  34
$$
MIZ001>003-009>011-084-230900-
WESTERN UPPER MICHIGAN

CITY           SKY/WX    TMP DP  RH WIND       PRES   REMARKS
IRON MOUNTAIN  CLEAR     35  29  78 CALM      30.23S
HOUGHTON       CLEAR     47  33  58 SW7       30.15S
COPPER HARBOR    N/A     53  31  42 W12G25    30.12S
IRONWOOD       CLEAR     54  34  47 SW7       30.18R
$$

ABBREVIATIONS USED IN REMARKS
   TC - TEMPERATURE IN CELSIUS
  WCI - WIND CHILL INDEX
   HX - HEAT INDEX
  VSB - VISIBILITY



USA.gov is the U.S. government's official web portal to all federal, state and local government web resources and services.